Location: Brook Park Mobile Home Park
(41.4197°N, 81.7703°W)
Time: 03:55:38
(UTC+00:00)

Daily predictions for brighter satellites

Satellite Brightness Start Highest point End
(mag) Time Altitude Azimuth Time Altitude Azimuth Time Altitude Azimuth
Cosmos 1110 Rocket 4.0 00:23:22 10° SSW 00:28:31 85° ESE 00:33:44 10° NNE
SJ-6B 3.1 00:25:40 10° SSE 00:29:28 49° ENE 00:33:19 10° N
OAO 3 Rocket 4.0 00:26:16 10° WSW 00:30:45 38° S 00:35:17 10° ESE
NOSS 2-2 (D) 2.7 00:29:46 10° SSW 00:33:10 76° ESE 00:36:17 10° NE
Cosmos 1408 4.1 00:30:35 10° NNW 00:33:27 34° W 00:36:17 10° SSW
DELTA 2 R/B (1) 4.0 00:28:12 10° W 00:33:40 56° SSW 00:39:08 10° ESE
Cosmos 1378 Rocket 3.6 00:31:48 10° N 00:36:08 84° W 00:40:25 10° S
NOSS 2-3 (E) 3.3 00:33:02 10° SW 00:36:41 77° NW 00:40:36 10° NNE
PAYLOAD B 4.3 00:31:24 10° SSE 00:36:49 62° ENE 00:42:19 10° N
Cosmos 2221 Rocket 3.6 00:33:34 10° N 00:38:07 82° E 00:42:40 10° S
Nadezhda 1 Rocket 4.3 00:32:16 10° SSW 00:38:19 74° W 00:44:24 10° N
Cosmos 1782 Rocket 4.4 00:35:09 10° SSE 00:38:53 29° E 00:42:41 10° NNE
Landsat 7 4.2 00:35:58 10° S 00:40:38 67° WSW 00:45:20 10° NNW
Cosmos 1741 Rocket 4.0 00:36:39 10° NNW 00:41:55 82° ENE 00:47:11 10° SSE
Cosmos 1892 2.8 00:38:27 10° N 00:41:56 48° E 00:45:22 10° SSE
ATLAS 5 CENTAUR R/B 2.8 00:41:32 10° SE 00:42:41 11° ESE 00:43:51 10° E
Cosmos 1242 Rocket 3.7 00:40:18 10° NNW 00:43:05 37° W 00:45:51 10° SSW
Cosmos 1461 4.2 00:39:37 10° SW 00:43:36 44° NW 00:47:29 10° NNE
Cosmos 1908 Rocket 3.5 00:41:14 10° S 00:45:30 69° E 00:49:50 10° NNE
Cosmos 968 Rocket 3.5 00:40:48 10° NNW 00:45:51 59° ENE 00:50:54 10° SSE
USA 186 2.4 00:44:11 10° SE 00:47:02 35° ENE 00:49:50 10° N
SL-4 R/B 3.5 00:45:00 10° W 00:48:23 31° NNW 00:51:36 10° NE
CZ-4 R/B 1.3 00:45:17 10° SSE 00:49:14 77° ENE 00:53:09 10° N
Feng Yun 1-1 Rocket 4.5 00:47:29 10° SE 00:52:46 53° ENE 00:58:13 10° N
USA 129 3.1 00:52:34 10° NE 00:54:29 18° E 00:54:47 18° E
Cosmos 1455 2.2 00:51:08 10° S 00:54:34 48° E 00:58:01 10° NNE
Meteor 1-16 Rocket 4.3 00:49:54 10° S 00:55:35 86° W 01:01:07 10° N
USA 267 4.5 00:52:48 10° NE 00:58:53 42° NNW 01:04:57 10° W
CSL-04 Debris 4.4 00:53:57 10° SSE 00:59:12 54° ENE 01:04:30 10° N
Timation 1 Rocket 4.3 00:56:27 10° NNW 01:02:27 75° ENE 01:08:23 10° SSE
CZ-4B R/B 4.1 00:59:26 10° S 01:03:01 40° W 01:06:28 10° NNW
Cosmos 1953 2.2 00:59:27 10° S 01:03:16 85° W 01:07:06 10° N
Cosmos 1300 Rocket 3.8 01:01:14 10° SSE 01:05:21 44° E 01:09:31 10° NNE
Cosmos 2297 4.4 01:02:07 10° SW 01:07:41 58° WNW 01:13:19 10° NNE
CSL-04 Rocket 3.8 01:04:15 10° SSE 01:09:41 62° ENE 01:15:07 10° N
Cosmos 2181 Rocket 4.0 01:05:05 10° S 01:11:09 66° E 01:17:20 10° NNE
MOS 1-B 4.3 01:08:08 10° SSE 01:13:56 79° ENE 01:19:45 10° NNW
SJ 16-02 1.4 01:09:52 10° N 01:14:09 57° ENE 01:17:18 17° SE
DELTA 2 DEB (DPAF) 3.9 01:10:02 10° NNE 01:14:18 84° ESE 01:18:31 10° SSW
NOSS 3-1 (A) 4.0 01:11:56 10° SSE 01:15:35 22° ESE 01:19:36 10° ENE
Cosmos 2369 Rocket 2.7 01:11:24 10° SSW 01:17:03 66° WNW 01:22:42 10° NNE
SL-8 Rocket 4.0 01:11:49 10° N 01:18:02 90° ENE 01:24:12 10° S
CZ-4C R/B 3.6 01:17:22 10° NNE 01:20:30 32° E 01:21:32 26° SE
Cosmos 1992 Rocket 4.1 01:16:18 10° S 01:21:18 50° ESE 01:26:21 10° NNE
SPOT 1/Viking Rocket 4.1 01:19:37 10° S 01:24:45 60° W 01:29:55 10° NNW
Cosmos 2263 4.4 01:20:17 10° SSW 01:25:54 77° WNW 01:31:33 10° NNE
Cosmos 2098 Rocket 3.4 01:20:46 10° S 01:26:10 57° E 01:30:38 10° NNE
Cosmos 2341 Rocket 4.3 01:22:58 10° NNW 01:29:14 69° W 01:35:24 10° S
Cosmos 1825 3.2 01:26:46 10° NNW 01:30:02 41° W 01:33:18 10° SSW
CZ-4B R/B 3.7 01:24:30 10° S 01:30:06 65° WSW 01:35:42 10° NNW
Okean-O 3.0 01:28:34 26° SE 01:30:41 45° ENE 01:34:54 10° N
PSLV R/B 3.7 01:28:19 15° S 01:31:18 77° WSW 01:35:02 10° NNW
Terra 3.5 01:30:44 16° ENE 01:31:28 16° ENE 01:34:19 10° NNE
USA 234 3.5 01:28:21 16° SSE 01:33:41 63° SW 01:40:10 10° NW
Cosmos 1833 4.2 01:28:57 10° NNW 01:34:36 69° ENE 01:37:59 25° SE
NOSS 3-1 (C) 2.8 01:33:52 10° SSW 01:38:36 81° ESE 01:44:14 10° NE
Hubble Space Telescope 2.9 01:40:16 10° SSW 01:41:39 12° S 01:41:39 12° S
Ariane Rocket 4.3 01:47:05 22° ENE 01:47:45 23° ENE 01:51:38 10° NNE
Cosmos 1025 Rocket 4.4 01:46:27 10° NNW 01:50:30 38° W 01:54:33 10° SSW
Okean O Rocket 2.4 01:49:28 13° S 01:53:09 49° W 01:57:23 10° NNW
Nadezhda 3 Rocket 3.9 01:49:58 15° S 01:55:01 65° E 02:01:07 10° NNE
Cosmos 1486 Rocket 4.4 01:53:26 10° N 01:58:28 46° ENE 01:59:33 40° E
Resurs 01 Rocket 2.7 01:55:01 12° SSW 01:58:52 42° W 02:03:04 10° NNW
ATLAS 3B R/B 2.7 01:53:13 10° SSW 02:00:04 66° ESE 02:07:27 10° NE
Cosmos 1975 Rocket 3.6 01:58:27 10° NNW 02:02:41 54° W 02:05:11 23° SSW
USA 281 3.3 01:59:34 23° SSE 02:03:58 73° WSW 02:10:34 10° NNW
Cosmos 1821 Rocket 4.0 01:58:17 10° N 02:04:29 82° W 02:08:32 23° S
Iridium 4 Rocket 4.0 02:09:52 42° E 02:10:06 42° E 02:15:23 10° NNE
SL-27 R/B 3.6 02:08:38 10° NNW 02:10:18 30° N 02:10:18 30° N
OAO 3 Rocket 4.1 02:09:14 10° WSW 02:13:29 34° SSW 02:13:29 34° SSW
ATLAS 5 CENTAUR R/B 2.2 02:22:53 10° WSW 02:26:03 40° NW 02:29:30 10° NNE
SPOT 5 3.0 02:24:44 53° S 02:26:04 83° WSW 02:31:25 10° NNW
SL-4 R/B 4.2 02:25:45 10° NW 02:27:59 16° N 02:29:13 13° NNE
Cosmos 1536 Rocket 3.7 02:24:10 10° N 02:28:03 63° NNE 02:28:03 63° NNE
Cosmos 2151 Rocket 3.5 02:28:53 84° NNW 02:28:53 84° NNW 02:33:13 10° N
Cosmos 2227 Rocket 4.1 02:27:07 10° N 02:30:34 16° NE 02:31:09 16° NE
ERS-1 Rocket 2.8 02:36:16 80° E 02:36:18 80° ENE 02:41:20 10° N
Cosmos 1339 Rocket 4.3 02:38:58 50° S 02:40:45 89° WNW 02:46:54 10° N
CZ-4C R/B 4.3 02:42:39 10° NNW 02:48:26 26° NE 02:51:18 22° ENE
Cosmos 1934 Rocket 3.9 02:44:23 10° N 02:50:33 83° W 02:51:27 67° S
Cosmos 1777 Rocket 4.2 02:46:16 10° NNW 02:50:58 63° NNE 02:50:58 63° NNE
SJ 16-02 4.1 02:50:18 10° WNW 02:51:56 12° W 02:53:34 10° WSW
Okean 2 Rocket 3.8 02:52:04 51° W 02:52:06 51° W 02:56:30 10° N
Alouette 2 Rocket 4.2 02:44:26 10° NNW 02:52:21 88° ENE 02:52:47 79° SSE
Cosmos 371 Rocket 3.8 02:54:40 10° NNW 02:58:28 56° NNW 02:58:28 56° NNW
Cosmos 2297 Rocket 2.9 02:54:50 10° NNW 02:59:36 43° NE 02:59:36 43° NE
COSMOS 2455 3.8 02:55:31 10° NNW 03:00:56 34° NE 03:00:56 34° NE
Cosmos 1354 Rocket 4.3 02:56:44 10° NNW 03:01:18 64° N 03:01:18 64° N
Cosmos 1503 Rocket 4.2 02:56:54 10° NNW 03:01:49 71° WNW 03:01:49 71° WNW
NOSS 3-1 (A) 3.9 03:01:03 10° WSW 03:05:48 48° NW 03:11:25 10° NNE
Spot 2 Rocket 3.9 03:07:30 61° NW 03:07:30 61° NW 03:11:54 10° NNW
Terra 2.6 03:09:27 49° WNW 03:09:27 49° WNW 03:13:15 10° NNW
USA 229 DEB 4.4 03:16:02 38° NE 03:16:02 38° NE 03:20:01 10° NE
USA 229 4.4 03:16:14 37° NE 03:16:14 37° NE 03:20:09 10° NE
CENTAUR R/B 4.5 03:18:02 10° NNW 03:24:56 30° NE 03:28:19 23° ENE
Ariane Rocket 4.1 03:27:14 40° WNW 03:27:14 40° WNW 03:31:12 10° NNW
Cosmos 1656 4.3 03:29:29 52° NNW 03:29:29 52° NNW 03:33:58 10° NNE
Cosmos 2263 Rocket 4.2 03:30:50 10° N 03:34:00 18° NE 03:34:00 18° NE
ATLAS 3B R/B 4.3 03:45:00 10° WSW 03:51:21 33° NW 03:58:06 10° NNE
Cosmos 2227 Rocket 3.5 04:09:41 10° NNW 04:12:58 36° NNW 04:12:58 36° NNW
Cosmos 1980 Rocket 4.3 04:21:01 19° NNE 04:21:01 19° NNE 04:22:35 10° NNE
Cosmos 1697 Rocket 4.3 04:30:32 31° N 04:30:32 31° N 04:33:38 10° NNE
CZ-4C R/B 3.3 04:30:22 10° NW 04:36:24 65° NNW 04:36:24 65° NNW
Cosmos 2297 Rocket 4.3 04:39:24 10° NW 04:41:24 19° WNW 04:41:24 19° WNW
CENTAUR R/B 3.4 05:08:16 10° NW 05:15:26 69° NNW 05:15:26 69° NNW
Cosmos 2263 Rocket 4.2 05:13:38 10° NNW 05:15:40 23° NNW 05:15:40 23° NNW
SL-16 R/B 4.2 05:40:46 23° NNE 05:40:46 23° NNE 05:42:54 10° NNE
NOSS 3-2 (C) 4.5 05:41:43 10° NNW 05:48:48 58° NE 05:48:48 58° NE
Cosmos 1980 Rocket 4.3 06:02:44 20° NNW 06:02:44 20° NNW 06:05:41 10° N
USA 267 4.0 06:04:36 49° NNE 06:04:36 49° NNE 06:10:38 10° NW
Cosmos 1844 Rocket 4.5 06:00:23 10° NNW 06:02:56 27° N 06:02:56 27° N
Lacrosse 5 3.9 06:42:19 25° NE 06:42:19 25° NE 06:44:25 10° NE
USA 238 DEB 4.0 06:41:11 10° NNW 06:48:03 72° NNE 06:48:03 72° NNE
USA 238 4.0 06:41:17 10° NNW 06:48:16 72° NNE 06:48:16 72° NNE
Cosmos 2333 Rocket 3.4 06:52:51 39° NNE 06:52:51 39° NNE 06:56:20 10° NNE
Resurs 1-4 Rocket 3.7 06:45:54 10° NNE 06:49:06 30° ENE 06:49:06 30° ENE
Cosmos 2360 Rocket 3.4 06:56:51 37° N 06:56:51 37° N 07:00:21 10° NNE
Cosmos 2322 Rocket 3.6 07:06:40 31° NNW 07:06:40 31° NNW 07:10:11 10° N
IDEFIX/ARIANE 42P 3.7 07:05:25 10° NNE 07:08:47 40° NNE 07:08:47 40° NNE
Cosmos 2219 Rocket 3.0 07:14:08 47° NNE 07:14:08 47° NNE 07:18:03 10° NNE
USA 215 4.2 07:08:11 10° NE 07:14:06 38° NNW 07:15:22 35° NW
SL-16 R/B 4.1 07:22:36 20° NW 07:22:36 20° NW 07:26:01 10° N
MSX 4.2 07:18:29 10° NNE 07:23:17 62° NE 07:23:17 62° NE
NOSS 3-4 (A) 3.9 07:26:04 47° NNW 07:26:04 47° NNW 07:30:51 10° NNE
NOSS 3-4 (C) 3.9 07:26:07 48° NNW 07:26:07 48° NNW 07:30:55 10° NNE
ADEOS II 2.6 07:32:16 10° NNE 07:36:45 56° ENE 07:36:45 56° ENE
FENGYUN 3A 4.0 07:36:42 10° NNE 07:41:48 59° E 07:41:48 59° E
Meteor 2-6 Rocket 4.4 07:45:26 70° NNW 07:45:26 70° NNW 07:50:49 10° N
Meteor 1-14 Rocket 4.5 07:41:48 10° N 07:46:15 59° NNW 07:46:15 59° NNW
CZ-2D R/B 2.5 07:45:07 10° N 07:49:32 56° NNW 07:49:32 56° NNW
SL-16 R/B 2.7 07:51:52 44° SE 07:53:52 70° ENE 08:00:04 10° N
Cosmos 2180 Rocket 4.4 07:47:42 10° N 07:54:06 80° W 07:54:09 80° WSW
Cosmos 1500 Rocket 4.2 07:58:54 10° N 08:03:03 53° ENE 08:03:03 53° ENE
Meteor 1-27 Rocket 4.2 08:04:14 46° SE 08:05:39 58° E 08:11:15 10° NNE
IRAS Rocket 4.1 08:01:24 10° NNE 08:07:03 83° WNW 08:07:17 80° WSW
Cosmos 1943 Rocket 4.0 08:02:25 10° N 08:07:22 30° NE 08:12:17 10° ESE
COSMOS 2428 2.8 08:10:38 61° WNW 08:10:40 61° WNW 08:16:19 10° NNE
Meteor 1-10 Rocket 4.2 08:13:29 70° SW 08:14:00 76° W 08:19:59 10° N
CZ-2C R/B 3.3 08:17:16 42° WNW 08:17:16 42° WNW 08:21:18 10° NNW
AQUA 4.0 08:11:45 10° N 08:15:55 60° NW 08:15:55 60° NW
Cosmos 2237 Rocket 2.5 08:16:42 49° SSE 08:17:57 62° ESE 08:23:34 10° NNE
BlueWalker 3 4.1 08:15:54 16° NNW 08:18:03 25° NNE 08:21:15 10° E
Cosmos 1980 3.8 08:18:03 53° SSE 08:19:13 68° ESE 08:24:50 10° NNE
Cosmos 1867 3.5 08:16:41 10° NNW 08:22:12 90° SW 08:27:40 10° SSE
Meteor 1-11 Rocket 3.5 08:16:53 10° N 08:22:29 85° W 08:23:45 55° S
Lacrosse 5 3.7 08:21:30 19° NW 08:22:58 22° NNW 08:26:56 10° NNE
CZ-2C R/B 3.2 08:18:30 10° N 08:23:31 55° WNW 08:23:31 55° WNW
ALOS 2.1 08:19:13 10° NNE 08:23:53 88° WNW 08:23:56 87° SW
ATLAS 2AS CENTAUR R/B 4.1 08:19:52 18° SSE 08:24:30 34° ESE 08:30:54 10° NE
Cosmos 2322 4.4 08:26:12 37° WNW 08:26:33 37° WNW 08:31:51 10° N
Sich 1 2.9 08:23:53 10° N 08:28:05 82° ENE 08:28:05 82° ENE
Cosmos 1340 Rocket 4.2 08:28:57 27° SE 08:30:03 33° E 08:33:31 10° NNE
Resurs 1-4 Rocket 3.3 08:25:59 10° N 08:30:10 28° WNW 08:30:10 28° WNW
Meteor 2-9 Rocket 4.0 08:27:34 10° N 08:32:59 87° E 08:35:52 29° S
Cosmos 1536 4.3 08:30:21 10° NNW 08:32:13 26° NNW 08:32:13 26° NNW
Cosmos 2344 4.2 08:26:42 10° NW 08:35:30 87° NE 08:47:55 10° SSE
Cosmos 2333 Rocket 4.2 08:34:50 13° WNW 08:35:54 13° NW 08:38:38 10° NNW
Cosmos 1743 Rocket 3.3 08:33:06 10° N 08:37:26 82° W 08:37:38 78° SW
Cosmos 2195 Rocket 4.4 08:36:50 41° SSW 08:39:11 76° W 08:45:29 10° N
Cosmos 2360 Rocket 4.4 08:38:40 10° NW 08:39:59 11° NW 08:41:17 10° NNW
Nadezhda 4 Rocket 4.4 08:44:00 39° W 08:45:00 42° WNW 08:50:46 10° N
NOSS 2-2 (C) 4.4 08:43:06 10° NNW 08:47:42 67° NE 08:54:15 10° SE
Okean 1 4.3 08:50:16 31° NW 08:50:16 31° NW 08:52:54 10° N
IDEFIX/ARIANE 42P 4.4 08:46:32 10° NNW 08:49:32 16° WNW 08:49:33 16° WNW
NOSS 0 Rocket 4.1 08:48:14 40° WSW 08:50:08 55° WNW 08:56:11 10° NNE
GP-B 3.6 08:46:01 10° NNW 08:49:53 41° WNW 08:49:53 41° WNW
Cosmos 1680 Rocket 3.6 08:47:52 34° S 08:50:13 77° ESE 08:55:33 10° NNE
Cosmos 192 4.2 08:46:00 10° NNW 08:50:53 70° WSW 08:54:23 19° S
Cosmos 2278 Rocket 2.1 08:46:31 10° NNW 08:52:12 73° WSW 08:57:50 10° SSE
Cosmos 2219 Rocket 4.1 08:55:50 13° WNW 08:57:14 15° NW 09:00:15 10° NNW
BREEZE-M DEB (TANK) 4.3 09:00:45 36° WSW 09:02:53 89° SE 09:18:06 10° ENE
Meteor 2-10 4.2 08:57:39 10° NNW 09:03:10 58° W 09:07:23 18° SSW
Cosmos 1461 2.5 08:59:54 10° NW 09:03:43 70° WSW 09:07:29 10° SSE
Cosmos 2056 Rocket 4.2 08:58:52 10° NNW 09:04:12 57° ENE 09:09:31 10° SE
RESURS DK-1 3.6 09:04:22 25° WNW 09:04:36 25° NW 09:08:00 10° N
SL-16 R/B 3.1 09:03:20 11° S 09:08:33 47° ESE 09:13:58 10° NE
METEOR-M 4.1 09:03:14 10° N 09:08:34 73° WNW 09:11:50 24° SSW
Cosmos 1151 Rocket 3.4 09:07:55 39° WSW 09:08:42 44° WNW 09:12:51 10° N
Cosmos 1553 Rocket 4.1 09:04:15 10° N 09:10:33 78° E 09:16:43 10° S
CZ-2C R/B 2.5 09:05:26 10° NNE 09:10:38 89° ESE 09:14:38 17° SSW
PAYLOAD A 3.9 09:09:11 10° NNE 09:14:09 83° ESE 09:18:06 15° SSW
USA 308 4.0 09:12:46 21° S 09:14:32 32° SE 09:18:01 10° ENE
ADEOS II 3.7 09:13:09 10° NNW 09:16:34 18° WNW 09:17:38 17° WNW
Cosmos 1624 Rocket 4.3 09:11:22 10° NNW 09:16:37 71° ENE 09:21:46 10° SSE
Cosmos 921 Rocket 2.9 09:16:42 21° SSW 09:19:26 86° ESE 09:23:46 10° NNE
Cosmos 1340 2.4 09:16:07 10° N 09:19:33 80° E 09:22:58 10° SSE
Cosmos 1626 2.1 09:18:47 16° S 09:21:13 65° E 09:24:30 10° NNE
Cosmos 1975 2.6 09:18:44 10° NNW 09:22:35 73° W 09:26:25 10° S
Intercosmos 25 Rocket 3.4 09:20:41 10° NNW 09:24:14 73° W 09:29:23 10° S
ATLAS 5 CENTAUR R/B 3.6 09:24:49 10° NNW 09:29:31 39° NE 09:35:13 10° ESE
Cosmos 1470 Rocket 4.0 09:26:10 10° N 09:30:33 66° E 09:34:56 10° SSE
Meteor 2-12 Rocket 4.4 09:24:46 10° S 09:30:48 82° W 09:36:54 10° N
NOSS 7 (E) 4.4 09:28:03 10° NW 09:31:18 70° SW 09:35:18 10° SSE
Envisat 3.4 09:26:39 10° N 09:31:28 45° WNW 09:34:51 19° SW
Cosmos 1484 Rocket 4.0 09:28:43 10° NNE 09:32:07 37° E 09:35:27 10° SSE
BREEZE-M DEB (TANK) 2.6 09:34:04 19° WSW 09:37:47 55° NNW 09:40:19 10° NE
SL-16 R/B 3.8 09:36:56 17° WSW 09:37:58 18° W 09:42:04 10° NW
Cosmos 1666 Rocket 3.9 09:39:46 10° NNW 09:44:00 42° W 09:48:09 10° SSW
Meteor 1-18 Rocket 4.3 09:39:31 10° SSW 09:45:01 56° WNW 09:50:39 10° N
Cosmos 1371 Rocket 4.0 09:40:19 10° NNW 09:45:29 62° WSW 09:50:41 10° S
Thor Agena Rocket 3.9 09:44:28 10° N 09:49:12 43° WNW 09:53:50 11° SW
Cosmos 1066 Rocket 4.1 09:44:37 10° SSW 09:49:58 78° W 09:55:27 10° N
Cosmos 1943 Rocket 2.5 09:45:55 10° NW 09:51:12 41° WSW 09:56:28 10° S
YAOGAN 6 3.5 09:48:28 10° NNW 09:51:14 26° WNW 09:53:02 16° WSW
H-2A R/B 2.4 09:48:13 10° NNE 09:53:13 68° ESE 09:58:19 10° S
Meteor 2-4 Rocket 4.2 09:48:37 11° SW 09:53:19 39° WNW 09:58:27 10° N
USA 290 2.5 09:52:54 10° NNW 09:55:59 65° ENE 09:59:01 10° SSE
BlueWalker 3 1.9 09:52:45 10° WNW 09:56:34 65° SW 10:00:20 10° SE
Cosmos 1842 3.4 09:53:32 10° S 09:57:13 71° E 10:00:58 10° NNE
Cosmos 1933 Rocket 4.0 09:53:31 10° N 09:57:53 67° E 10:02:10 10° SSE
Cosmos 2297 4.2 09:56:25 10° NNW 10:02:10 69° ENE 10:07:53 10° SSE
Cosmos 2237 Rocket 3.6 09:58:31 11° W 10:02:27 22° NW 10:06:46 10° N
Cosmos 1340 Rocket 4.5 10:04:12 11° WSW 10:06:15 16° WNW 10:08:43 10° NNW
Lacrosse 5 4.3 10:05:09 10° NNW 10:07:42 14° N 10:10:16 10° NNE
Cosmos 2369 Rocket 2.9 10:05:10 10° NNW 10:10:43 59° ENE 10:16:13 10° SE
ATLAS 2AS CENTAUR R/B 3.1 10:07:54 10° SW 10:15:11 55° NW 10:22:13 10° NNE
Cosmos 1707 2.6 10:14:20 10° S 10:17:58 86° W 10:21:41 10° N
Cosmos 883 Rocket 4.4 10:13:45 10° N 10:19:53 78° W 10:25:58 10° S
S3M 4.1 10:17:15 10° NNW 10:23:13 53° W 10:29:14 10° SSW
BREEZE-M DEB (TANK) 4.1 10:07:18 10° WNW 10:25:13 80° SW 10:29:47 10° SE
